[[{"header":{"parameterUnit":"m.s-1","parameterCategory":1,"la1":30.2991,"la2":30.254,"lo1":-89.0895,"lo2":-89.0444,"dy":0.0017,"dx":0.0017,"nx":28,"ny":28,"refTime":"2024-08-16T09:00:00:Z","depth":0,"parameterNumber":2,"parameterNumberName":"U-component_of_WINDS"},"data":[0,0,0,0,0,0,0,0,0,0,0,0,0,0,0,0,0,0,0,0,0,0,0,0,0,0,0,0,0,0,0,0,0,0,0,0,0,0,0,0,0,0,0,0,0,0,0,0,0,0,0,0,0,0,0,0,0,0,2.1539,2.1541,0,2.1683,2.1685,2.1686,2.1739,2.1738,2.1738,2.1737,2.1882,2.1886,2.189,0,0,0,0,0,0,0,0,0,0,0,0,0,2.1304,2.1308,2.1539,2.1541,2.1542,2.1683,2.1685,2.1687,2.1739,2.1738,2.1737,2.1737,2.188,2.1885,2.189,0,0,0,0,0,0,0,0,0,0,0,0,0,2.1423,2.1309,2.1539,2.1585,2.1591,2.1682,2.1685,2.1687,2.1739,2.1738,2.1737,2.1737,2.1879,2.1885,2.1891,2.1945,0,0,2.1911,2.1914,0,0,0,0,0,0,0,0,2.1416,2.1431,2.1577,2.1582,2.1589,2.1692,2.1655,2.1774,2.1739,2.1683,2.1737,2.1736,2.1819,2.183,2.1859,2.1952,2.1958,2.1911,2.1915,2.1918,2.192,0,0,0,0,0,0,0,2.1408,2.1425,2.1596,2.1579,2.1586,2.1598,2.1614,2.1678,2.1753,2.1687,2.1692,2.1708,2.1822,2.1852,2.1863,2.1961,2.1911,2.1917,2.1921,2.1923,2.2103,2.2104,0,0,0,0,0,0,2.1392,2.1418,2.1591,2.16,2.1499,2.1602,2.162,2.166,2.1752,2.1766,2.1709,2.171,2.1842,2.1855,2.1868,2.1936,2.1918,2.1924,2.1928,2.2102,2.2103,2.2104,0,0,0,0,0,0,2.1387,2.1407,2.1585,2.151,2.1534,2.1607,2.1651,2.1663,2.1693,2.1769,2.1782,2.1726,2.1842,2.1859,2.1925,2.1942,2.1927,2.1933,2.2101,2.2102,2.2104,2.2074,0,0,0,0,0,0,2.138,2.1405,2.1428,2.1511,2.1538,2.1642,2.1652,2.1666,2.1705,2.1708,2.1788,2.1801,2.1842,2.1915,2.1932,2.1951,2.1938,2.21,2.2102,2.2103,2.2074,2.2074,2.2074,0,0,0,0,0,2.1371,2.1413,2.1429,2.1449,2.1568,2.1643,2.1658,2.1706,2.1706,2.1728,2.1776,2.1798,2.1937,2.1922,2.1941,2.1962,2.2099,2.2101,2.2103,2.2074,2.2074,2.2074,0,0,0,0,0,0,2.133,2.1425,2.1443,2.1513,2.157,2.1652,2.1682,2.1705,2.1762,2.1763,2.1818,2.1836,2.1898,2.1936,2.1918,2.2018,2.2019,2.2025,2.199,2.1991,2.1992,2.1981,2.1943,0,0,0,0,0,2.1329,2.1383,2.1463,2.1517,2.1545,2.1608,2.1642,2.1674,2.1734,2.1758,2.1811,2.1868,2.1924,2.196,2.2016,2.2079,2.2096,2.2103,2.2103,2.2103,2.2107,2.2141,2.2145,2.2111,2.2111,2.2111,0,0,2.1328,2.1386,2.1417,2.151,2.1558,2.1611,2.1628,2.1684,2.1723,2.1767,2.1833,2.1873,2.194,2.2004,2.2035,2.2038,2.212,2.2105,2.2105,2.2109,2.2144,2.2147,2.215,2.2112,2.2112,2.2112,0,0,2.1352,2.1403,2.1453,2.15,2.1571,2.1613,2.1624,2.1703,2.1731,2.1798,2.1831,2.1878,2.1974,2.202,2.2056,2.2095,2.2117,2.2111,2.2113,2.2146,2.2148,2.2151,2.2163,2.2168,2.2115,2.2115,2.2115,0,2.1341,2.1424,2.1475,2.1529,2.1568,2.161,2.1659,2.1702,2.1788,2.1813,2.1815,2.1935,2.1983,2.2058,2.2067,2.2095,2.2109,2.2103,2.2144,2.2147,2.215,2.2163,2.2168,2.2114,2.2114,2.2114,2.2114,0,2.1406,2.1463,2.1494,2.1577,2.1619,2.1671,2.1727,2.1764,2.1791,2.1832,2.1898,2.1957,2.2024,2.2045,2.2072,2.2123,2.2122,2.2133,2.2136,2.2151,2.2164,2.217,2.2112,2.2113,2.2113,2.2113,0,0,2.141,2.1518,2.1529,2.1566,2.1647,2.1691,2.1743,2.181,2.1839,2.1896,2.194,2.202,2.203,2.207,2.2103,2.2132,2.2157,2.2139,2.2141,2.214,2.2215,2.2205,2.221,2.2172,2.2173,2.2174,2.2209,0,2.1445,2.1542,2.1587,2.1663,2.1715,2.1754,2.1799,2.1853,2.1891,2.194,2.1982,2.2037,2.2047,2.2071,2.2102,2.2147,2.2172,2.2145,2.2212,2.2214,2.2194,2.2217,2.2209,2.2239,2.2214,2.2215,2.2216,0,2.1498,2.1555,2.1636,2.171,2.1733,2.1773,2.1837,2.1883,2.1943,2.1969,2.2013,2.2044,2.2099,2.2097,2.2172,2.2152,2.2182,2.2208,2.221,2.2218,2.2215,2.2225,2.225,2.2254,2.2224,2.2224,2.2223,0,2.1491,2.1588,2.1649,2.168,2.1767,2.1794,2.1831,2.1891,2.1927,2.1982,2.2006,2.2066,2.2099,2.2144,2.219,2.2185,2.226,2.2262,2.2281,2.228,2.2296,2.2294,2.2325,2.2315,2.2315,2.2315,2.2315,0,2.1525,2.1573,2.1647,2.1684,2.1738,2.1789,2.1841,2.1881,2.1933,2.1977,2.2014,2.2055,2.2113,2.216,2.2196,2.2251,2.2266,2.2287,2.2296,2.2284,2.2281,2.2304,2.2303,2.2316,2.2316,2.2316,2.2315,0,2.1527,2.1579,2.1647,2.1724,2.1744,2.178,2.1845,2.1881,2.1921,2.1976,2.1992,2.2054,2.2111,2.2161,2.2237,2.2261,2.2317,2.2329,2.2297,2.2302,2.2318,2.2315,2.2364,2.2373,2.2357,2.2357,2.2357,0,2.1545,2.1582,2.1663,2.1695,2.1732,2.1784,2.1822,2.1873,2.191,2.198,2.2007,2.2067,2.2118,2.2207,2.2258,2.2316,2.2328,2.2341,2.2337,2.2323,2.2327,2.2325,2.2328,2.2341,2.2341,2.2341,2.2341,0,2.157,2.1594,2.1647,2.1709,2.1752,2.1803,2.1855,2.1879,2.1939,2.1978,2.2037,2.2077,2.2153,2.2212,2.2274,2.2311,2.2335,2.2342,2.2349,2.2337,2.2317,2.2327,2.2297,2.234,2.2341,2.2341,2.2341,2.2341,2.1581,2.1615,2.1677,2.1734,2.1778,2.1825,2.1863,2.1907,2.1958,2.2025,2.2051,2.2111,2.2168,2.2255,2.2291,2.2338,2.2342,2.2353,2.2355,2.2357,2.2355,2.2309,2.2349,2.2349,2.2349,2.2349,2.235,0,2.1607,2.1649,2.1701,2.1772,2.1816,2.1836,2.1893,2.1929,2.1981,2.2033,2.2082,2.2149,2.2205,2.226,2.2319,2.2345,2.2358,2.2359,2.2358,2.2365,2.2348,2.2336,2.2348,2.2348,2.2348,2.2348,2.2348,2.2348,2.1627,2.1686,2.1716,2.1797,2.1837,2.1897,2.1928,2.197,2.2012,2.2085,2.2133,2.2168,2.2221,2.2283,2.2335,2.2349,2.2369,2.2367,2.2384,2.2367,2.2367,2.2366,2.2355,2.2371,2.2371,2.2398,2.2398,2.2398]},{"header":{"parameterUnit":"m.s-1","parameterCategory":1,"la1":30.2991,"la2":30.254,"lo1":-89.0895,"lo2":-89.0444,"dy":0.0017,"dx":0.0017,"nx":28,"ny":28,"refTime":"2024-08-16T09:00:00:Z","depth":0,"parameterNumber":3,"parameterNumberName":"V-component_of_WINDS"},"data":[0,0,0,0,0,0,0,0,0,0,0,0,0,0,0,0,0,0,0,0,0,0,0,0,0,0,0,0,0,0,0,0,0,0,0,0,0,0,0,0,0,0,0,0,0,0,0,0,0,0,0,0,0,0,0,0,0,0,3.9542,3.9542,0,3.9512,3.9512,3.9512,3.9437,3.9436,3.9434,3.9433,3.9404,3.9404,3.9405,0,0,0,0,0,0,0,0,0,0,0,0,0,3.9538,3.9539,3.9543,3.9542,3.9542,3.9512,3.9512,3.9511,3.9438,3.9436,3.9434,3.9432,3.9403,3.9404,3.9405,0,0,0,0,0,0,0,0,0,0,0,0,0,3.9527,3.9539,3.9543,3.9501,3.9497,3.9512,3.9512,3.9511,3.9438,3.9436,3.9433,3.9431,3.9403,3.9404,3.9405,3.9458,0,0,3.9408,3.9409,0,0,0,0,0,0,0,0,3.9528,3.9527,3.9508,3.9504,3.95,3.9476,3.9499,3.9494,3.9439,3.9461,3.9433,3.943,3.943,3.9428,3.9428,3.9457,3.9456,3.9408,3.9409,3.9409,3.941,0,0,0,0,0,0,0,3.9529,3.9528,3.9531,3.9508,3.9503,3.9485,3.9481,3.9498,3.9459,3.9459,3.9453,3.945,3.9427,3.9427,3.9427,3.9455,3.9408,3.9409,3.941,3.941,3.9526,3.9528,0,0,0,0,0,0,3.9535,3.953,3.9531,3.953,3.9508,3.9487,3.9482,3.9486,3.9458,3.9452,3.9452,3.9447,3.9427,3.9426,3.9425,3.9485,3.9409,3.941,3.9411,3.9523,3.9526,3.9529,0,0,0,0,0,0,3.9535,3.9536,3.9533,3.9528,3.9526,3.9489,3.9494,3.9487,3.9487,3.9454,3.9446,3.946,3.9425,3.9424,3.945,3.9483,3.9411,3.9412,3.952,3.9524,3.9528,3.9605,0,0,0,0,0,0,3.9536,3.9537,3.9556,3.9529,3.9527,3.9558,3.9496,3.9488,3.9488,3.9481,3.9458,3.9452,3.9423,3.9449,3.9451,3.9483,3.9412,3.9517,3.9522,3.9526,3.96,3.9611,3.9621,0,0,0,0,0,3.9536,3.958,3.9557,3.9558,3.955,3.956,3.9559,3.9523,3.9491,3.9511,3.949,3.9453,3.9479,3.9453,3.9454,3.9487,3.9515,3.9521,3.9526,3.9595,3.9609,3.9621,0,0,0,0,0,0,3.9612,3.9575,3.955,3.9587,3.9577,3.9547,3.9571,3.9539,3.9539,3.9532,3.9488,3.9484,3.9516,3.9504,3.9475,3.9537,3.9491,3.9497,3.9543,3.9556,3.9567,3.9568,3.9413,0,0,0,0,0,3.9633,3.9644,3.9611,3.9646,3.9643,3.9608,3.9611,3.9584,3.9573,3.9568,3.9549,3.954,3.9545,3.955,3.9554,3.9598,3.9592,3.9621,3.9632,3.9641,3.9646,3.9668,3.9681,3.9547,3.9547,3.9547,0,0,3.9677,3.9658,3.9667,3.9661,3.9651,3.9663,3.9605,3.962,3.9629,3.9571,3.9594,3.958,3.9566,3.9602,3.9616,3.9593,3.9682,3.9648,3.9655,3.9656,3.9675,3.9688,3.9699,3.9551,3.955,3.955,0,0,3.9762,3.9749,3.9777,3.9767,3.9751,3.9728,3.9735,3.971,3.9698,3.9721,3.9677,3.9687,3.9699,3.969,3.9688,3.9771,3.9737,3.9773,3.9829,3.9851,3.9861,3.987,3.9899,3.991,3.9779,3.9779,3.978,0,3.9818,3.9834,3.9795,3.9813,3.9811,3.9759,3.9787,3.978,3.9766,3.9767,3.9741,3.9753,3.9741,3.9773,3.9793,3.9793,3.98,3.9775,3.9863,3.9872,3.988,3.9906,3.9917,3.9784,3.9783,3.9783,3.9782,0,3.9904,3.9915,3.994,3.9927,3.9929,3.9952,3.9916,3.9923,3.9896,3.9876,3.99,3.9883,3.9882,3.9888,3.9863,3.9917,3.9903,3.9871,3.9824,3.9897,3.9922,3.9932,3.979,3.9789,3.9787,3.9786,0,0,4.0035,4.0001,4.001,4.0004,3.9983,3.9991,4.0012,4.0011,4.0017,4.001,4.0026,4.0037,4.0007,4.0004,3.9978,3.9997,4.0063,3.9962,3.9961,3.9981,4.0121,4.0144,4.0157,4.0041,4.0043,4.0044,4.0121,0,4.0114,4.0147,4.0112,4.0152,4.0162,4.0113,4.0131,4.012,4.0102,4.0109,4.0089,4.0097,4.0057,4.0055,4.0072,4.0051,4.009,4.0045,4.0055,4.0056,4.0059,4.017,4.0195,4.0268,4.0131,4.0133,4.0134,0,4.0211,4.0207,4.0248,4.0224,4.0227,4.0244,4.0239,4.0246,4.0234,4.0219,4.0216,4.0184,4.0203,4.0158,4.0184,4.0154,4.0157,4.0147,4.0149,4.0148,4.0099,4.0171,4.0291,4.0302,4.0149,4.0147,4.0146,0,4.0302,4.0307,4.0332,4.0328,4.0301,4.0314,4.0304,4.0288,4.029,4.0286,4.0287,4.0286,4.0286,4.0287,4.0255,4.0226,4.0285,4.0238,4.0273,4.0274,4.0286,4.0286,4.0408,4.029,4.029,4.029,4.0289,0,4.0393,4.0419,4.0372,4.0387,4.0416,4.0377,4.0406,4.039,4.0378,4.0389,4.0347,4.0359,4.0318,4.0325,4.0301,4.0326,4.0326,4.0315,4.0308,4.0318,4.0319,4.0318,4.0312,4.0293,4.0292,4.0291,4.0291,0,4.0498,4.0468,4.0491,4.0464,4.0458,4.048,4.0456,4.047,4.0449,4.0464,4.0465,4.0433,4.044,4.0409,4.0411,4.0394,4.0431,4.0416,4.0435,4.043,4.0467,4.0463,4.0592,4.0606,4.048,4.0481,4.0482,0,4.0558,4.0577,4.0552,4.0556,4.0547,4.0555,4.0556,4.0519,4.0522,4.0509,4.0523,4.0527,4.0527,4.0541,4.0518,4.0519,4.0503,4.0548,4.0503,4.0512,4.0502,4.0501,4.0503,4.0557,4.0558,4.056,4.0561,0,4.0667,4.0651,4.0653,4.0651,4.0653,4.0649,4.0643,4.0649,4.0609,4.0614,4.062,4.0621,4.0622,4.0626,4.0623,4.0612,4.058,4.0575,4.0583,4.0593,4.0603,4.0597,4.046,4.0572,4.0571,4.057,4.057,4.0569,4.075,4.0765,4.0749,4.0753,4.0744,4.074,4.075,4.0731,4.0735,4.0733,4.0711,4.0721,4.0708,4.07,4.0693,4.0701,4.068,4.0691,4.0694,4.0698,4.0704,4.0603,4.07,4.07,4.0699,4.0699,4.0699,0,4.0856,4.0844,4.0848,4.084,4.0844,4.0813,4.0804,4.0809,4.0818,4.0809,4.081,4.0817,4.0821,4.0798,4.0799,4.081,4.0795,4.0811,4.0809,4.0807,4.0723,4.0715,4.0823,4.0823,4.0823,4.0823,4.0823,4.0823,4.0912,4.0934,4.0916,4.0934,4.0922,4.0931,4.0929,4.0924,4.0916,4.0926,4.0928,4.0913,4.0898,4.0898,4.09,4.0893,4.0895,4.0916,4.0904,4.0825,4.0813,4.0802,4.0794,4.0917,4.0917,4.0988,4.0989,4.0989]}]]